Weather History for Rexburg, ID

Change the Weather History Date:

Tuesday, November 29, 2011

  Actual Average Record
Temperature  
Mean Temperature 31 °F 24 °F  
Max Temperature 40 °F 33 °F 50 °F (1999)
Min Temperature 22 °F 16 °F -6 °F (2006)
Degree Days  
Heating Degree Days 34 41  
Month to date heating degree days 998 984  
Since 1 July heating degree days 1719 1971  
Cooling Degree Days 0 0  
Month to date cooling degree days 0 0  
Year to date cooling degree days 222 208  
Moisture  
Dew Point 27 °F    
Average Humidity 81    
Maximum Humidity 92    
Minimum Humidity 70    
Precipitation  
Precipitation 0.00 in 0.02 in 0.44 in (1982)
Month to date precipitation 0.49 1.01  
Year to date precipitation 12.70 12.00  
Sea Level Pressure  
Sea Level Pressure 30.38 in    
Wind  
Wind Speed 2 mph (NE)    
Max Wind Speed 8 mph    
Max Gust Speed 10 mph    
Visibility 10 miles    
Events      
T = Trace of Precipitation, MM = Missing Value Source: NWS Daily Summary

Daily Weather History Graph

Daily Weather History Graph

Search for Another Location

Airport:

Trip Planner

Search our weather history database for the weather conditions in past years. The results will help you decide how hot, cold, wet, or windy it might be!

Date:

Astronomy

Nov. 29, 2011 Rise Set
Actual Time 7:38 AM MST 4:51 PM MST
Civil Twilight 7:06 AM MST 5:23 PM MST
Nautical Twilight 6:31 AM MST 5:59 PM MST
Astronomical Twilight 5:56 AM MST 6:34 PM MST
Moon 11:24 AM MST (11/29) 9:53 PM MST (11/29)
Length of Visible Light 10h 17m
Length of Day
9h 12m
Waxing Crescent, 25% of the Moon is Illuminated
Nov 29
Waxing Crescent
Dec 2
First Quarter
Dec 10
Full
Dec 17
Last Quarter
Dec 24
New

Hourly Weather History & Observations

Time (MST) Temp. Windchill Dew Point Humidity Pressure Visibility Wind Dir Wind Speed Gust Speed Precip Events Conditions
12:53 AM 21.9 °F 13.4 °F 19.0 °F 89% 30.48 in 10.0 mi East 6.9 mph - N/A   Scattered Clouds
1:02 AM 24.8 °F 20.5 °F 19.4 °F 80% 30.40 in 10.0 mi East 3.5 mph - N/A   Mostly Cloudy
1:53 AM 26.1 °F - 21.9 °F 84% 30.45 in 10.0 mi Calm Calm - N/A   Overcast
2:53 AM 26.1 °F 21.9 °F 21.9 °F 84% 30.46 in 10.0 mi NE 3.5 mph - N/A   Overcast
3:53 AM 26.1 °F 20.5 °F 23.0 °F 88% 30.43 in 10.0 mi ENE 4.6 mph - N/A   Overcast
4:53 AM 28.0 °F 21.7 °F 24.1 °F 85% 30.46 in 10.0 mi North 5.8 mph - N/A   Overcast
5:32 AM 28.4 °F 23.3 °F 24.8 °F 86% 30.40 in 10.0 mi ENE 4.6 mph - N/A   Overcast
5:53 AM 28.9 °F 23.9 °F 25.0 °F 85% 30.49 in 10.0 mi East 4.6 mph - N/A   Overcast
6:53 AM 30.9 °F - 27.0 °F 85% 30.48 in 10.0 mi Calm Calm - N/A   Overcast
7:53 AM 32.0 °F 28.7 °F 28.0 °F 85% 30.49 in 10.0 mi ENE 3.5 mph - N/A   Overcast
8:09 AM 33.8 °F 29.6 °F 28.4 °F 81% 30.41 in 10.0 mi NNE 4.6 mph - N/A   Overcast
8:53 AM 33.1 °F 28.7 °F 28.0 °F 82% 30.50 in 10.0 mi NE 4.6 mph - N/A   Overcast
9:53 AM 33.1 °F - 28.0 °F 82% 30.50 in 10.0 mi Calm Calm - N/A   Overcast
10:53 AM 35.1 °F 32.2 °F 28.9 °F 78% 30.50 in 10.0 mi NE 3.5 mph - N/A   Overcast
11:53 AM 37.0 °F - 28.9 °F 73% 30.47 in 10.0 mi Calm Calm - N/A   Overcast
12:49 PM 37.4 °F - 28.4 °F 70% 30.35 in 10.0 mi Calm Calm - N/A   Overcast
12:53 PM 37.0 °F 34.5 °F 28.9 °F 73% 30.44 in 10.0 mi North 3.5 mph - N/A   Overcast
1:53 PM 39.0 °F - 30.0 °F 70% 30.38 in 10.0 mi Calm Calm - N/A   Overcast
2:53 PM 39.0 °F 35.7 °F 30.0 °F 70% 30.35 in 10.0 mi NE 4.6 mph - N/A   Overcast
3:53 PM 39.0 °F - 30.9 °F 73% 30.34 in 10.0 mi Calm Calm - N/A   Partly Cloudy
4:53 PM 37.0 °F 34.5 °F 30.0 °F 76% 30.32 in 10.0 mi ENE 3.5 mph - N/A   Mostly Cloudy
5:53 PM 36.0 °F - 30.0 °F 79% 30.30 in 10.0 mi Calm Calm - N/A   Overcast
6:53 PM 35.1 °F 32.2 °F 30.0 °F 82% 30.27 in 10.0 mi ENE 3.5 mph - N/A   Overcast
7:53 PM 34.0 °F - 30.0 °F 85% 30.25 in 10.0 mi Calm Calm - N/A   Clear
8:53 PM 32.0 °F - 28.9 °F 88% 30.22 in 10.0 mi Calm Calm - N/A   Partly Cloudy
9:53 PM 32.0 °F - 28.0 °F 85% 30.19 in 10.0 mi Calm Calm - N/A   Clear
10:53 PM 30.9 °F - 28.0 °F 89% 30.17 in 9.0 mi Calm Calm - N/A   Clear
11:53 PM 30.9 °F - 28.9 °F 92% 30.14 in 8.0 mi Calm Calm - N/A   Clear